TimeCST,TemperatureF,Dew PointF,Humidity,Sea Level PressureIn,VisibilityMPH,Wind Direction,Wind SpeedMPH,Gust SpeedMPH,PrecipitationIn,Events,Conditions,WindDirDegrees,DateUTC
12:15 AM,46.4,39.2,76,30.14,9.0,ENE,15.0,19.6,N/A,,Overcast,70,2013-01-10 06:15:00
12:35 AM,46.4,39.2,76,30.14,4.0,ENE,18.4,23.0,N/A,,Haze,70,2013-01-10 06:35:00
12:55 AM,46.4,41.0,81,30.12,10.0,ENE,17.3,24.2,N/A,Rain,Light Rain,70,2013-01-10 06:55:00
2:15 AM,44.6,41.0,87,30.11,4.0,East,12.7,18.4,0.03,Rain,Light Rain,80,2013-01-10 08:15:00
2:35 AM,44.6,41.0,87,30.09,5.0,East,15.0,20.7,0.07,Rain,Light Rain,80,2013-01-10 08:35:00
2:55 AM,44.6,41.0,87,30.09,4.0,ENE,13.8,-,0.07,Rain,Light Rain,70,2013-01-10 08:55:00
3:15 AM,44.6,41.0,87,30.08,10.0,ENE,13.8,-,N/A,,Overcast,70,2013-01-10 09:15:00
3:35 AM,44.6,41.0,87,30.07,3.0,ENE,12.7,17.3,0.01,Rain,Light Rain,70,2013-01-10 09:35:00
3:55 AM,44.6,42.8,93,30.06,2.5,ENE,12.7,18.4,0.02,Rain,Light Rain,70,2013-01-10 09:55:00
4:15 AM,44.6,42.8,93,30.03,2.5,ENE,12.7,19.6,0.01,Rain,Light Rain,70,2013-01-10 10:15:00
4:35 AM,44.6,42.8,93,30.00,10.0,ENE,15.0,-,0.01,,Overcast,70,2013-01-10 10:35:00
4:55 AM,44.6,42.8,93,29.99,7.0,ENE,16.1,-,0.01,,Overcast,70,2013-01-10 10:55:00
5:15 AM,44.6,42.8,93,30.00,10.0,East,12.7,19.6,N/A,,Overcast,80,2013-01-10 11:15:00
5:35 AM,44.6,42.8,93,29.99,10.0,ENE,10.4,17.3,N/A,,Overcast,70,2013-01-10 11:35:00
5:55 AM,44.6,42.8,93,29.99,10.0,ENE,9.2,-,N/A,,Overcast,70,2013-01-10 11:55:00
6:35 AM,44.6,42.8,93,29.97,10.0,East,12.7,-,N/A,,Overcast,90,2013-01-10 12:35:00
6:55 AM,44.6,44.6,100,29.97,7.0,East,13.8,-,N/A,,Overcast,80,2013-01-10 12:55:00
7:55 AM,44.6,44.6,100,29.97,3.0,East,6.9,-,0.01,Rain,Light Rain,80,2013-01-10 13:55:00
8:35 AM,44.6,44.6,100,29.96,1.0,East,10.4,-,0.02,Rain,Light Rain,90,2013-01-10 14:35:00
8:55 AM,44.6,44.6,100,29.96,1.5,East,9.2,-,0.02,Rain,Light Rain,90,2013-01-10 14:55:00
9:15 AM,44.6,44.6,100,29.95,2.5,East,9.2,-,0.01,Rain,Light Rain,80,2013-01-10 15:15:00
9:35 AM,44.6,44.6,100,29.95,3.0,East,8.1,-,0.01,,Overcast,80,2013-01-10 15:35:00
9:55 AM,46.4,46.4,100,29.93,2.5,ENE,9.2,-,0.01,,Overcast,70,2013-01-10 15:55:00
10:15 AM,46.4,46.4,100,29.92,3.0,East,9.2,-,N/A,,Overcast,80,2013-01-10 16:15:00
10:35 AM,46.4,46.4,100,29.92,4.0,East,10.4,-,N/A,,Overcast,80,2013-01-10 16:35:00
10:55 AM,46.4,46.4,100,29.91,1.8,East,9.2,-,N/A,,Overcast,90,2013-01-10 16:55:00
11:15 AM,46.4,46.4,100,29.90,2.5,East,9.2,-,N/A,,Overcast,100,2013-01-10 17:15:00
11:35 AM,46.4,46.4,100,29.89,3.0,East,6.9,-,N/A,,Overcast,100,2013-01-10 17:35:00
11:55 AM,48.2,48.2,100,29.88,4.0,East,5.8,-,N/A,,Overcast,100,2013-01-10 17:55:00
12:15 PM,48.2,48.2,100,29.87,5.0,ESE,8.1,-,N/A,,Overcast,120,2013-01-10 18:15:00
12:35 PM,48.2,48.2,100,29.85,5.0,East,8.1,-,N/A,Rain,Light Rain,100,2013-01-10 18:35:00
12:55 PM,48.2,48.2,100,29.84,3.0,ESE,6.9,-,N/A,,Overcast,120,2013-01-10 18:55:00
1:15 PM,48.2,48.2,100,29.82,3.0,East,4.6,-,N/A,,Overcast,100,2013-01-10 19:15:00
1:35 PM,48.2,48.2,100,29.82,3.0,ESE,5.8,-,N/A,,Overcast,120,2013-01-10 19:35:00
1:55 PM,50.0,50.0,100,29.82,3.0,SE,5.8,-,N/A,,Overcast,140,2013-01-10 19:55:00
2:15 PM,50.0,50.0,100,29.80,3.0,South,5.8,-,N/A,,Overcast,180,2013-01-10 20:15:00
2:35 PM,50.0,50.0,100,29.80,2.5,SSW,5.8,-,N/A,,Overcast,200,2013-01-10 20:35:00
2:55 PM,50.0,50.0,100,29.80,1.0,SW,6.9,-,N/A,,Overcast,220,2013-01-10 20:55:00
3:15 PM,50.0,50.0,100,29.79,1.5,WSW,5.8,-,N/A,,Overcast,250,2013-01-10 21:15:00
3:35 PM,50.0,50.0,100,29.79,7.0,Calm,Calm,-,N/A,,Overcast,0,2013-01-10 21:35:00
3:55 PM,50.0,50.0,100,29.79,9.0,Calm,Calm,-,N/A,,Overcast,0,2013-01-10 21:55:00
4:15 PM,51.8,51.8,100,29.80,9.0,SSW,4.6,-,N/A,,Overcast,200,2013-01-10 22:15:00
4:35 PM,51.8,51.8,100,29.80,10.0,SW,4.6,-,N/A,,Overcast,230,2013-01-10 22:35:00
4:55 PM,50.0,50.0,100,29.80,7.0,WSW,3.5,-,N/A,,Overcast,240,2013-01-10 22:55:00
5:15 PM,50.0,50.0,100,29.80,6.0,Calm,Calm,-,N/A,,Overcast,0,2013-01-10 23:15:00
5:35 PM,50.0,50.0,100,29.80,5.0,Calm,Calm,-,N/A,,Overcast,0,2013-01-10 23:35:00
5:55 PM,50.0,50.0,100,29.80,2.0,West,4.6,-,N/A,,Overcast,260,2013-01-10 23:55:00
6:15 PM,50.0,50.0,100,29.80,0.5,WSW,8.1,-,N/A,Fog,Fog,240,2013-01-11 00:15:00
6:35 PM,50.0,50.0,100,29.80,0.5,WSW,3.5,-,N/A,Fog,Fog,240,2013-01-11 00:35:00
6:55 PM,50.0,50.0,100,29.79,0.2,West,4.6,-,N/A,Fog,Fog,260,2013-01-11 00:55:00
7:15 PM,50.0,50.0,100,29.80,0.2,West,5.8,-,N/A,Fog,Fog,260,2013-01-11 01:15:00
7:35 PM,50.0,50.0,100,29.80,0.5,West,8.1,-,N/A,Fog,Fog,260,2013-01-11 01:35:00
7:55 PM,48.2,48.2,100,29.80,1.8,West,6.9,-,N/A,,Overcast,260,2013-01-11 01:55:00
8:15 PM,48.2,48.2,100,29.79,3.0,West,6.9,-,N/A,,Overcast,280,2013-01-11 02:15:00
8:35 PM,48.2,48.2,100,29.78,4.0,Calm,Calm,-,N/A,,Overcast,0,2013-01-11 02:35:00
8:55 PM,46.4,46.4,100,29.80,3.0,WSW,4.6,-,N/A,,Overcast,240,2013-01-11 02:55:00
9:15 PM,46.4,46.4,100,29.79,0.5,Calm,Calm,-,N/A,Fog,Fog,0,2013-01-11 03:15:00
9:35 PM,46.4,46.4,100,29.78,1.0,Calm,Calm,-,N/A,,Overcast,0,2013-01-11 03:35:00
9:55 PM,46.4,46.4,100,29.78,0.2,ESE,3.5,-,N/A,Fog,Fog,120,2013-01-11 03:55:00
10:15 PM,46.4,46.4,100,29.77,0.2,SE,3.5,-,N/A,Fog,Fog,140,2013-01-11 04:15:00
10:35 PM,46.4,46.4,100,29.78,0.5,South,6.9,-,N/A,Fog,Fog,180,2013-01-11 04:35:00
10:55 PM,46.4,46.4,100,29.81,0.8,South,15.0,-,N/A,,Overcast,190,2013-01-11 04:55:00
11:15 PM,48.2,48.2,100,29.81,6.0,SSW,12.7,-,N/A,,Overcast,200,2013-01-11 05:15:00
11:55 PM,48.2,48.2,100,29.80,10.0,SSW,13.8,21.9,N/A,,Overcast,200,2013-01-11 05:55:00